Notices

What's New in latest Release from April 7th, 2021:

- Updated Glossary, including Speed of Maximum Gust, and Total Hourly Precipitation

- Updated national and regional climate services offices contacts and prices information

- Addition of station inventory lists for 1981-2010, 1971-2000, and 1961-1990 Normals.

Please note that as of June 10, 2021 UTC dates are available for all years 2004-present, and DBA is working on populating the remaining years (2003 to 1953).

If you haven't already, please take our survey and provide feedback about our website: https://eccc.sondage-survey.ca/f/LanguageSelection.aspx?s=442ca660-fcf1-47c0-95a9-59707d6fd709

Hourly Data Report for March 25, 2018

MIRAMICHI RCS
NEW BRUNSWICK

47°00'34.000" N
65°27'54.000" W
33.00 m
8100989
71744
ACQ

Download Data

Hourly Data (March 2018)
Hourly Data Report for March 25, 2018
TIME
LST
Temp Definition
°C
Dew Point Definition
°C
Rel Hum Definition
%
Precip. Amount Definition
mm

Wind Dir Definition
10's deg

Wind Spd Definition
km/h
Visibility Definition
km
Stn Press Definition
kPa
Hmdx Definition


Wind Chill Definition


Weather Definition


00:00 -1.6 -6.0 72 0.0 3 17   102.15   -7 LegendNANA
01:00 -1.3 -6.8 66 0.0 4 21   102.21   -7 LegendNANA
02:00 -1.5 -6.7 68 0.0 4 18   102.22   -7 LegendNANA
03:00 -1.6 -6.4 70 0.0 4 22   102.26   -8 LegendNANA
04:00 -1.8 -6.6 70 0.0 3 17   102.33   -7 LegendNANA
05:00 -2.1 -7.4 67 0.0 3 24   102.43   -8 LegendNANA
06:00 -2.8 -7.8 68 0.0 2 19   102.53   -9 LegendNANA
07:00 -3.1 -8.3 67 0.0 3 24   102.64   -10 LegendNANA
08:00 -3.2 -8.6 66 0.0 3 24   102.74   -10 LegendNANA
09:00 -3.2 -8.8 65 0.0 4 25   102.85   -10 LegendNANA
10:00 -3.1 -9.3 62 0.0 3 20   102.97   -9 LegendNANA
11:00 -2.5 -10.1 56 0.0 2 17   103.04   -8 LegendNANA
12:00 -2.1 -8.0 64 0.0 7 28   103.02   -9 LegendNANA
13:00 -2.0 -8.7 60 0.0 7 25   103.05   -8 LegendNANA
14:00 -2.3 -9.3 59 0.0 8 31   103.04   -10 LegendNANA
15:00 -2.2 -9.6 57 0.0 7 24   103.06   -9 LegendNANA
16:00 -2.4 -9.2 60 0.0 8 25   103.07   -9 LegendNANA
17:00 -3.1 -10.5 56 0.0 7 21   103.11   -9 LegendNANA
18:00 -4.3 -12.0 55 0.0 7 24   103.18   -11 LegendNANA
19:00 -5.4 -11.6 62 0.0 7 16   103.23   -11 LegendNANA
20:00 -8.2 -13.2 67 0.0 7 8   103.28   -12 LegendNANA
21:00 -8.6 -11.4 80 0.0 1 4   103.34   -11 LegendNANA
22:00 -10.5 -13.1 81 0.0 32 3   103.38   -12 LegendNANA
23:00 -12.0 -13.9 86 0.0 29 1   103.39   -13 LegendNANA

Notes on Data Quality.

Legend

  • E = Estimated
  • M = Missing
  • NA = Not Available*
  • [empty] = Indicates an unobserved value
Date modified: